Location: Braunsdorf
(50.7357°N, 11.9136°E)
Time: 10:37:52
(UTC+00:00)

Cosmos 1633 Rocket - Pass Details

Date: 17 February 2020
Orbit: 608 x 622 km, 82.5° (Epoch: 29 March)

Event Time Altitude Azimuth Distance (km) Brightness Sun altitude
Rises 05:42:40 0° 346° (NNW) 2,888 6.2 -6.8°
Reaches altitude 10° 05:44:55 10° 343° (NNW) 1,980 5.4 -6.5°
Maximum altitude 05:49:13 58° 265° (W) 718 3.1 -5.8°
Drops below altitude 10° 05:53:30 10° 186° (S) 1,972 5.7 -5.2°
Sets 05:55:44 0° 182° (S) 2,875 6.6 -4.8°
